GFSFLT2_con_mucape_132.txt.gz
CAPE
0 0 0 0 0 0 0 0 0 3 81 65 291 231 990 903 726 542 294 305 137 121 130 146 119 168 378 448 409 491 583 606
0 0 0 0 0 0 0 0 1 108 85 25 147 243 418 543 787 623 317 267 301 156 178 164 153 199 318 557 448 541 526 538
0 0 0 0 0 0 0 0 0 7 47 38 1 15 142 308 530 381 339 338 443 325 194 158 152 196 393 662 619 612 554 520
0 0 0 0 0 0 0 0 0 0 0 37 51 151 136 111 804 820 626 592 428 376 238 155 238 216 513 606 711 599 585 643
0 0 0 0 0 1 2 0 5 3 14 41 142 213 192 155 526 311 314 335 395 398 213 207 426 422 658 696 742 627 567 591
0 0 0 0 0 0 3 2 4 2 13 4 89 362 695 627 568 456 360 630 617 381 292 292 260 497 533 824 849 918 734 590
0 0 0 0 0 0 0 0 0 0 1 0 13 95 567 655 616 694 435 520 366 447 506 538 410 224 327 390 673 597 649 660
0 0 0 0 0 0 0 0 0 0 2 21 17 27 253 267 518 701 562 384 245 269 307 294 312 306 310 250 355 412 445 468
0 0 0 0 0 0 0 0 0 0 0 144 69 60 192 266 395 405 398 302 122 306 293 227 206 192 254 187 105 175 83 153
0 0 0 0 0 0 0 0 0 0 30 158 92 69 107 247 198 253 199 142 22 0 10 21 19 76 141 136 105 111 40 37
0 0 0 0 0 0 0 0 0 10 153 369 311 164 92 83 109 227 362 145 30 1 0 0 0 49 48 57 118 23 55 48
0 0 0 0 0 0 0 0 4 20 153 265 307 25 0 152 93 326 266 134 67 23 1 31 56 1 0 82 91 47 8 15
0 0 0 0 0 0 0 0 30 28 11 188 112 0 55 186 83 207 390 158 70 5 4 0 67 55 1 7 59 94 124 54
0 0 0 35 44 2 10 70 63 0 0 75 170 159 263 280 236 148 176 129 119 46 21 5 69 110 0 9 0 1 29 110
3 11 117 82 21 3 69 36 0 0 0 4 35 60 195 170 299 230 271 143 131 45 21 6 57 93 13 19 36 19 6 6
28 25 43 100 82 54 69 4 2 0 0 2 35 79 74 148 222 418 205 223 152 219 481 131 59 105 46 29 64 52 15 64
52 143 192 198 167 113 41 1 1 0 11 17 1 4 75 82 133 140 151 189 235 338 151 164 132 136 107 83 109 54 0 38
4 128 108 124 141 131 54 0 0 1 86 54 0 48 45 242 89 93 98 148 167 172 308 204 212 175 151 135 126 78 22 24
85 60 38 68 105 0 0 2 26 122 138 192 187 97 133 35 21 42 70 64 89 122 154 221 199 206 153 134 137 148 341 130

GFSFLT2_con_mucape_135.txt.gz
CAPE
0 0 0 0 0 0 0 0 0 0 53 354 334 286 829 887 726 561 453 432 286 155 91 145 163 173 408 398 474 448 585 560
0 0 0 0 0 0 0 0 0 7 26 13 290 264 274 392 606 898 801 648 404 194 125 129 130 145 201 388 392 383 444 592
0 0 0 0 0 0 0 0 0 5 49 71 63 29 158 242 675 626 534 767 491 469 332 177 174 156 217 347 360 331 356 418
0 0 0 0 0 0 0 0 0 0 0 62 141 157 141 448 753 869 566 512 453 475 433 380 202 123 178 258 368 321 188 290
0 0 0 0 0 0 0 0 0 0 6 38 55 108 108 364 370 481 798 729 672 570 446 373 379 236 181 318 459 416 391 371
0 0 0 0 0 0 0 0 0 0 20 50 243 346 431 526 424 411 341 349 342 452 334 232 403 404 432 637 812 576 485 422
0 1 0 0 0 0 0 0 0 0 9 40 68 357 649 497 578 462 444 540 564 491 412 373 333 347 600 692 822 762 489 367
0 0 0 0 0 0 0 0 0 0 0 9 38 52 216 547 544 544 538 404 415 328 335 351 472 455 367 318 426 602 505 466
0 0 0 0 0 0 0 0 0 0 0 51 40 28 29 127 289 372 543 522 331 228 204 137 316 233 257 339 301 280 493 602
0 0 0 0 0 0 0 0 0 0 0 0 31 18 27 147 124 221 208 186 258 152 19 0 0 64 71 60 122 173 260 269
0 0 0 0 0 0 0 0 0 0 0 137 110 60 55 65 82 49 147 74 72 53 17 0 12 55 15 112 91 49 42 97
0 0 0 0 0 0 0 0 0 0 26 107 141 5 0 2 31 25 44 138 125 53 31 2 117 2 0 0 2 92 31 25
0 0 0 0 0 0 0 0 0 0 0 4 20 0 0 12 29 43 55 214 158 55 29 30 1 131 6 2 4 1 0 13
0 0 0 0 0 0 0 0 0 0 0 0 6 0 7 16 41 81 237 325 230 54 21 26 55 188 134 2 0 8 0 13
0 0 0 0 0 0 0 0 0 0 0 0 0 3 44 30 2 46 101 240 165 139 75 99 104 219 372 20 3 10 13 0
20 44 31 20 0 0 0 0 0 0 0 0 0 13 26 119 149 165 263 327 303 271 395 274 454 176 103 56 1 0 0 9
58 38 48 12 0 0 0 0 0 0 0 0 0 4 35 8 100 175 159 170 318 353 329 416 266 288 155 107 3 34 4 9
12 94 21 45 51 25 0 0 0 0 1 0 4 0 3 5 44 47 193 166 367 473 339 360 465 211 141 212 136 30 4 1
33 167 97 98 80 10 0 0 0 16 1 0 0 27 18 17 13 31 100 98 229 295 353 272 510 266 196 162 251 85 15 48

GFSFLT2_con_mucape_138.txt.gz
CAPE
0 0 0 0 0 0 0 0 0 0 9 48 322 294 543 853 805 645 326 279 244 134 113 142 151 216 236 266 261 286 312 317
0 0 0 0 0 0 0 0 0 1 35 16 221 163 107 296 505 719 761 454 348 292 251 177 136 141 320 299 257 271 301 367
0 0 0 0 0 0 0 0 0 0 28 48 199 81 79 326 498 669 469 761 705 548 405 300 160 166 219 106 267 264 261 371
0 0 0 0 0 0 0 0 0 0 0 107 118 156 116 352 459 738 471 677 813 522 491 427 335 228 239 127 196 253 202 205
0 0 0 0 0 0 0 0 0 0 0 53 155 129 151 162 272 625 708 554 482 471 430 414 400 363 243 179 214 327 257 264
0 0 0 0 0 0 0 0 0 0 0 33 65 37 117 245 336 203 539 686 658 571 473 404 351 310 282 241 186 394 326 278
0 0 0 0 0 0 0 0 0 0 0 13 35 122 334 404 441 283 345 468 424 368 344 246 224 292 465 352 454 462 453 398
0 0 0 0 0 0 0 0 0 0 0 11 25 16 222 565 500 533 392 366 394 361 331 330 408 452 377 346 562 717 507 458
0 0 0 0 0 0 0 0 0 0 0 0 3 5 3 27 264 377 423 359 294 258 226 118 61 70 101 111 138 276 387 498
0 0 0 0 0 0 0 0 0 0 0 0 0 0 0 6 49 109 180 134 174 256 253 169 41 33 2 0 12 14 30 189
0 0 0 0 0 0 0 0 0 0 0 0 0 0 17 0 34 34 54 70 37 63 85 61 30 12 8 0 0 0 0 1
0 0 0 0 0 0 0 0 0 0 0 0 16 0 0 0 0 51 39 55 53 1 1 27 17 92 9 3 2 0 0 0
0 0 0 0 0 0 0 0 0 0 0 0 0 0 0 0 0 0 2 30 113 128 76 51 3 184 58 33 0 0 0 0
0 0 0 0 0 0 0 0 0 0 0 0 0 0 0 0 1 1 5 29 31 79 6 36 17 102 171 13 0 0 0 0
0 0 0 0 0 0 0 0 0 0 0 0 0 1 0 0 20 5 0 3 28 77 44 134 208 327 272 1 0 0 0 0
29 21 1 0 0 8 0 0 0 0 0 0 0 9 3 4 13 22 15 71 35 73 48 157 456 454 164 0 0 7 3 8
28 100 68 16 8 19 0 0 0 0 0 0 1 3 0 0 24 48 38 24 23 56 95 371 636 596 105 3 0 12 25 16
19 91 51 41 29 20 6 0 0 0 0 0 0 0 0 0 1 4 13 40 227 119 222 293 649 652 406 0 2 8 29 51
9 74 72 83 78 61 3 0 0 0 0 0 0 0 0 0 0 0 0 2 46 313 410 425 469 414 655 170 12 29 36 45

GFSFLT2_con_mucape_141.txt.gz
CAPE
0 0 0 0 0 0 0 0 0 0 1 55 296 495 947 997 661 471 458 303 369 329 431 597 518 775 919 983 1102 1104 1077 1345
0 0 0 0 0 0 0 0 0 0 52 9 522 311 395 760 941 860 598 439 437 437 470 617 689 784 603 759 1063 1105 1027 1106
0 0 0 0 0 0 0 0 0 0 0 270 584 389 325 681 885 1039 985 815 566 605 639 700 759 720 831 740 933 1052 1085 1124
0 0 0 0 0 0 0 0 0 0 0 35 210 148 275 728 739 1106 708 925 830 711 740 705 816 808 695 824 781 911 1081 1384
0 0 0 0 0 0 0 0 0 0 0 25 132 140 389 461 673 933 1044 892 897 862 744 755 756 867 787 767 654 676 995 601
3 0 0 0 0 0 0 0 0 0 0 43 240 386 455 499 772 525 828 849 981 878 849 795 808 864 833 793 783 693 989 1069
1 0 0 0 0 0 0 0 0 0 0 0 352 469 450 656 834 677 836 856 894 898 852 774 751 736 942 1098 880 749 857 1028
0 0 0 0 0 0 0 0 0 0 0 0 19 352 670 941 917 949 785 777 717 580 314 369 472 450 713 778 886 1338 967 1005
0 0 0 0 0 0 0 0 0 0 0 21 27 66 196 504 819 962 941 757 629 350 306 268 211 230 143 139 354 467 895 1069
2 0 0 0 0 0 0 0 0 0 0 0 0 0 10 3 63 292 503 553 251 184 196 177 155 129 88 148 193 253 290 338
0 0 0 0 0 0 0 0 0 0 0 0 42 135 117 30 19 149 302 215 56 6 26 73 86 73 70 67 45 13 5 5
0 0 0 0 0 0 0 0 0 0 0 0 115 0 0 0 21 97 69 0 1 0 0 0 0 41 41 36 25 3 1 0
0 0 0 0 0 0 0 0 0 0 0 177 121 33 1 0 0 5 2 2 1 1 0 1 5 17 38 17 18 11 4 0
0 0 0 0 0 0 0 0 0 0 0 159 181 0 0 0 2 5 5 1 1 1 33 26 63 79 169 31 20 5 4 0
12 13 9 81 88 50 0 62 0 10 0 0 7 0 0 4 7 2 10 6 2 1 2 3 31 92 146 49 58 48 9 0
14 149 10 86 143 50 56 74 10 0 0 0 14 0 2 9 8 8 2 1 1 2 58 13 89 202 240 98 115 145 0 0
150 134 202 160 195 244 97 6 0 0 0 0 0 0 2 4 0 1 3 4 14 31 20 13 88 299 96 47 123 158 0 0
124 702 690 501 269 230 116 23 0 0 0 0 0 0 1 2 0 0 1 21 47 35 49 118 154 228 48 123 89 39 0 5
13 269 394 318 311 220 149 34 1 0 9 44 0 0 0 0 0 0 0 0 25 36 85 145 151 435 77 112 58 57 39 28

GFSFLT2_con_mucape_147.txt.gz
CAPE
0 0 0 0 0 0 2 17 189 164 244 45 6 19 222 868 1122 1367 1082 783 915 997 1153 1239 1302 1356 1602 2344 2519 2587 2237 2844
0 0 0 0 0 0 1 203 77 229 261 81 10 2 316 780 1108 1191 1374 1089 1052 1209 1229 1374 1364 1438 1578 1877 2339 2496 2195 2346
0 0 0 0 0 0 47 104 91 86 104 87 383 249 434 674 1049 1054 1369 1308 1224 1281 1247 1448 1519 1418 1702 1789 2489 2474 2706 2974
2 0 0 2 0 11 61 96 92 74 60 22 79 232 292 709 972 1090 1243 1640 1566 1519 1468 1381 1628 1743 1858 1988 1971 2165 2761 3675
6 40 1 0 2 6 41 68 89 77 130 139 24 11 446 638 983 1205 1470 1867 2043 1978 1872 1741 1703 1874 1849 1905 2079 2091 2431 2669
43 87 45 1 0 3 61 69 99 106 198 154 143 211 368 635 889 1238 1450 1917 2104 2420 2604 2474 2379 2425 2354 2175 2073 2241 2207 2522
0 1 56 92 0 0 28 89 96 114 127 97 115 198 458 715 1166 1352 1731 1764 2152 2509 2938 2882 2751 2708 2619 2497 2459 2362 2329 2317
45 69 37 72 32 41 51 69 79 30 39 35 106 54 62 834 1319 1294 1440 1571 1939 2500 2742 2785 2787 2728 2607 2652 2608 2498 2515 2426
87 116 155 133 112 81 72 57 51 100 79 45 98 125 107 601 1270 1447 1388 1519 1775 1927 1900 2037 2068 2105 2252 2173 2209 2215 2298 2314
185 375 214 96 94 93 83 61 50 33 10 10 130 112 384 534 959 1346 1485 1516 1779 1862 1944 1829 1521 1540 1456 1614 1635 1498 1395 1221
298 299 53 245 90 87 36 23 3 2 0 0 391 605 707 595 640 977 759 1240 1710 1569 1652 1375 1349 930 893 1027 1084 919 941 743
271 71 401 247 144 71 12 0 0 0 0 14 281 59 74 323 213 399 654 1140 1131 1030 1039 984 861 578 652 763 709 794 510 211
149 255 237 263 6 20 10 106 12 5 0 17 146 723 801 565 526 519 619 781 685 620 603 502 504 446 291 559 787 253 161 126
123 332 395 65 120 73 372 34 0 0 0 0 223 1065 785 600 537 448 580 663 512 494 416 2 38 145 307 527 247 84 73 28
152 400 1070 14 212 66 150 144 32 12 56 0 114 498 386 407 415 356 270 321 161 115 39 10 78 168 279 486 256 129 95 10
368 198 105 245 352 100 84 93 166 100 173 18 163 234 232 214 167 284 91 66 5 8 8 42 39 269 404 326 221 139 79 12
193 244 342 301 290 405 196 378 330 274 274 128 74 239 134 341 345 139 58 18 9 8 13 14 62 278 340 294 383 124 117 15
182 266 663 753 639 514 750 677 679 634 523 389 153 282 427 413 313 142 31 13 19 29 27 21 143 294 376 385 281 113 123 11
272 175 383 1012 840 809 874 800 733 626 587 424 360 460 423 334 258 54 110 77 90 39 50 66 151 206 287 610 437 245 210 68